International Virtual Aviation Organisation

Russian Federation and Kazakhstan MCD

 

Карточка аэропорта UIII

Внимание!
Информация на этой странице в стадии наполнения.
Если вы не увидели какой-то информации, или заметили неточность - пожалуйста сообщите нам!
Спасибо!
Команда RU-STAFF
Название аэропортаИркутск
Название аэропорта (англ.)Irkutsk
Превышение1686 ft. (513.9 m.)
Координаты52°16.032', 104°23.7'
Высота перехода1100m
Эшелон переходаFL070
Коды ответчика3330-3347
Зона ОрВДИркутск РПИ (UIII)
Данные METARUIII 032030Z 08001MPS 8000 1200S BR OVC002 M19/M21 Q1029 R12/810560 NOSIG RMK QBB060 QFE729/0972
Проноз погоды (TAF)UIII 032000Z 0321/0421 06003MPS 0300 FZFG VV001 TEMPO 0321/0405 1200 BR BKN002 FM040500 16005MPS 9999 NSC
NOTAMshow/hide NOTAM
AWOS   TABLE

Информация о ВПП

ВПП Длина ВПП (м.) Покрытие Курс ВПП Частота ILS
123565Железобетон117111.3
303565Железобетон297110.3

Диспетчерские позиции

Позывной Наименование органа УВД Частота
UIII_TWRИркутск-Вышка118.1
UIII_R_APPИркутск-Круг119.3
UIII_APPИркутск-Подход125.2
UIII_GNDИркутск-Руление121.7
UIII_FSSИркутск-Транзит128.5



Спутниковое изображение